This is the latest recevied weather packets stored in our database for station/object CW79215. If no packets are shown the sender has not sent any weather packets the latest 10 day(s).
| Time | Temp. | Humidity | Pressure | Rain* | Wind** | Luminosity | Snow |
|---|---|---|---|---|---|---|---|
| 1777853236 | 12.78° C | 62% | 1019.5 hPa | - | - | - | - |
| 1777852336 | 13.33° C | 61% | 1019.4 hPa | - | - | - | - |
| 1777851436 | 13.89° C | 59% | 1019.2 hPa | - | - | - | - |
| 1777850535 | 13.89° C | 57% | 1019.2 hPa | - | - | - | - |
| 1777849635 | 13.89° C | 58% | 1019.2 hPa | - | - | - | - |
| 1777848735 | 14.44° C | 54% | 1019.2 hPa | - | - | - | - |
| 1777847835 | 14.44° C | 54% | 1019.2 hPa | - | - | - | - |
| 1777846935 | 15° C | 54% | 1019.1 hPa | - | - | - | - |
| 1777846034 | 15° C | 53% | 1019.1 hPa | - | - | - | - |
| 1777845134 | 15.56° C | 51% | 1019 hPa | - | - | - | - |
| 1777844234 | 15.56° C | 51% | 1019 hPa | - | - | - | - |
| 1777843334 | 15.56° C | 50% | 1018.9 hPa | - | - | - | - |
| 1777842434 | 15.56° C | 50% | 1018.9 hPa | - | - | - | - |
| 1777841534 | 16.11° C | 50% | 1019 hPa | - | - | - | - |
| 1777840633 | 16.11° C | 48% | 1019.1 hPa | - | - | - | - |
| 1777839733 | 16.11° C | 47% | 1019 hPa | - | - | - | - |
| 1777838833 | 16.67° C | 46% | 1019.2 hPa | - | - | - | - |
| 1777837933 | 16.67° C | 46% | 1019.1 hPa | - | - | - | - |
| 1777837033 | 16.67° C | 44% | 1018.9 hPa | - | - | - | - |
| 1777836133 | 16.67° C | 44% | 1018.8 hPa | - | - | - | - |
| 1777835233 | 17.22° C | 42% | 1018.8 hPa | - | - | - | - |
| 1777834333 | 17.22° C | 42% | 1018.9 hPa | - | - | - | - |
| 1777833433 | 17.78° C | 40% | 1019 hPa | - | - | - | - |
| 1777832533 | 18.33° C | 37% | 1018.9 hPa | - | - | - | - |
| 1777831633 | 18.33° C | 36% | 1018.8 hPa | - | - | - | - |
* Rain since midnight (hover to see other rain measurements)
** Current wind speed in m/s (hover to see current wind gust speed)